Time,TemperatureF,DewpointF,PressureIn,WindDirection,WindDirectionDegrees,WindSpeedMPH,WindSpeedGustMPH,Humidity,HourlyPrecipIn,Conditions,Clouds,dailyrainin,SolarRadiationWatts/m^2,SoftwareType,DateUTC
2013-08-22 00:01:00,70.9,61.0,29.99,SW,217,1.0,4.0,71,0.00,RA,,0.00,0.0,WeatherDisplay:10.37,2013-08-22 04:01:00,
2013-08-22 00:06:00,70.8,61.3,29.99,SW,226,1.0,6.0,72,0.00,RA,,0.00,0.0,WeatherDisplay:10.37,2013-08-22 04:06:00,
2013-08-22 00:11:00,70.8,61.7,29.99,SW,214,1.0,6.0,73,0.00,FEW,,0.00,0.0,WeatherDisplay:10.37,2013-08-22 04:11:00,
2013-08-22 00:16:00,70.8,61.7,29.99,SSW,204,0.0,7.0,73,0.00,FEW,,0.00,0.0,WeatherDisplay:10.37,2013-08-22 04:16:00,
2013-08-22 00:21:00,70.6,61.5,29.99,SSW,207,3.0,9.0,73,0.00,FEW,,0.00,0.0,WeatherDisplay:10.37,2013-08-22 04:21:00,
2013-08-22 00:26:00,70.8,61.7,29.99,SSW,202,2.0,8.0,73,0.00,FEW,,0.00,0.0,WeatherDisplay:10.37,2013-08-22 04:26:00,
2013-08-22 00:31:00,70.8,61.7,29.99,SSW,204,2.0,5.0,73,0.00,FEW,,0.00,0.0,WeatherDisplay:10.37,2013-08-22 04:31:00,
2013-08-22 00:36:00,70.8,61.7,29.99,SSW,207,1.0,7.0,73,0.00,FEW,,0.00,0.0,WeatherDisplay:10.37,2013-08-22 04:36:00,
2013-08-22 00:41:00,70.8,61.7,29.99,SSW,208,2.0,6.0,73,0.00,FEW,,0.00,0.0,WeatherDisplay:10.37,2013-08-22 04:41:00,
2013-08-22 00:46:00,70.8,62.1,29.99,SSW,208,1.0,7.0,74,0.00,FEW,,0.00,0.0,WeatherDisplay:10.37,2013-08-22 04:46:00,
2013-08-22 00:51:00,70.8,61.7,29.99,SSW,212,0.0,3.0,73,0.00,FEW,,0.00,0.0,WeatherDisplay:10.37,2013-08-22 04:51:00,
2013-08-22 00:56:00,70.8,61.7,29.99,SW,214,0.0,7.0,73,0.00,FEW,,0.00,0.0,WeatherDisplay:10.37,2013-08-22 04:56:00,
2013-08-22 01:01:00,70.8,61.7,30.00,SW,218,1.0,7.0,73,0.00,FEW,,0.00,0.0,WeatherDisplay:10.37,2013-08-22 05:01:00,
2013-08-22 01:06:00,70.9,61.4,30.00,SW,223,0.0,6.0,72,0.00,FEW,,0.00,0.0,WeatherDisplay:10.37,2013-08-22 05:06:00,
2013-08-22 01:11:00,70.9,61.8,30.00,SW,228,1.0,7.0,73,0.00,FEW,,0.00,0.0,WeatherDisplay:10.37,2013-08-22 05:11:00,
2013-08-22 01:16:00,70.8,61.7,29.99,SW,225,2.0,5.0,73,0.00,FEW,,0.00,0.0,WeatherDisplay:10.37,2013-08-22 05:16:00,
2013-08-22 01:21:00,70.6,61.9,29.99,SW,224,3.0,9.0,74,0.00,FEW,,0.00,0.0,WeatherDisplay:10.37,2013-08-22 05:21:00,
2013-08-22 01:26:00,70.4,61.7,29.99,SW,224,1.0,4.0,74,0.00,FEW,,0.00,0.0,WeatherDisplay:10.37,2013-08-22 05:26:00,
2013-08-22 01:31:00,70.4,61.7,29.99,SW,228,1.0,6.0,74,0.00,FEW,,0.00,0.0,WeatherDisplay:10.37,2013-08-22 05:31:00,
2013-08-22 01:36:00,70.3,61.6,29.99,SSW,206,0.0,7.0,74,0.00,FEW,,0.00,0.0,WeatherDisplay:10.37,2013-08-22 05:36:00,
2013-08-22 01:41:00,70.3,61.6,29.99,SSW,195,2.0,5.0,74,0.00,FEW,,0.00,0.0,WeatherDisplay:10.37,2013-08-22 05:41:00,
2013-08-22 01:51:00,70.3,62.0,29.98,SSW,192,1.0,4.0,75,0.00,FEW,,0.00,0.0,WeatherDisplay:10.37,2013-08-22 05:51:00,
2013-08-22 01:56:00,70.2,62.3,29.98,SSW,201,2.0,7.0,76,0.00,FEW,,0.00,0.0,WeatherDisplay:10.37,2013-08-22 05:56:00,
2013-08-22 02:01:00,70.1,62.6,29.97,SSW,195,1.0,4.0,77,0.00,FEW,,0.00,0.0,WeatherDisplay:10.37,2013-08-22 06:01:00,
2013-08-22 02:06:00,70.1,63.3,29.97,SSW,199,1.0,7.0,79,0.00,FEW,,0.00,0.0,WeatherDisplay:10.37,2013-08-22 06:06:00,
2013-08-22 02:11:00,69.9,63.4,29.97,SSW,198,2.0,9.0,80,0.00,FEW,,0.00,0.0,WeatherDisplay:10.37,2013-08-22 06:11:00,
2013-08-22 02:16:00,69.9,63.8,29.97,SSW,193,1.0,5.0,81,0.00,FEW,,0.00,0.0,WeatherDisplay:10.37,2013-08-22 06:16:00,
2013-08-22 02:21:00,69.9,64.2,29.97,SSW,195,2.0,6.0,82,0.00,FEW,,0.00,0.0,WeatherDisplay:10.37,2013-08-22 06:21:00,
2013-08-22 02:26:00,69.9,64.5,29.97,SSW,200,3.0,7.0,83,0.00,FEW,,0.00,0.0,WeatherDisplay:10.37,2013-08-22 06:26:00,
2013-08-22 02:31:00,69.9,64.5,29.96,South,189,5.0,7.0,83,0.00,FEW,,0.00,0.0,WeatherDisplay:10.37,2013-08-22 06:31:00,
2013-08-22 02:36:00,69.9,64.8,29.96,South,189,3.0,8.0,84,0.00,FEW,,0.00,0.0,WeatherDisplay:10.37,2013-08-22 06:36:00,
2013-08-22 02:41:00,70.1,65.4,29.96,SSW,202,3.0,7.0,85,0.00,FEW,,0.00,0.0,WeatherDisplay:10.37,2013-08-22 06:41:00,
2013-08-22 02:46:00,70.1,65.4,29.95,SSW,202,2.0,7.0,85,0.00,FEW,,0.00,0.0,WeatherDisplay:10.37,2013-08-22 06:46:00,
2013-08-22 02:51:00,69.9,65.2,29.95,SSW,197,1.0,5.0,85,0.00,FEW,,0.00,0.0,WeatherDisplay:10.37,2013-08-22 06:51:00,
2013-08-22 02:56:00,69.9,65.2,29.95,SSW,200,2.0,7.0,85,0.00,FEW,,0.00,0.0,WeatherDisplay:10.37,2013-08-22 06:56:00,
2013-08-22 03:01:00,69.9,65.2,29.96,SSW,200,3.0,7.0,85,0.00,FEW,,0.00,0.0,WeatherDisplay:10.37,2013-08-22 07:01:00,
2013-08-22 03:06:00,69.9,65.2,29.96,SSW,203,1.0,7.0,85,0.00,FEW,,0.00,0.0,WeatherDisplay:10.37,2013-08-22 07:06:00,
2013-08-22 03:11:00,70.1,65.4,29.96,SSW,199,1.0,7.0,85,0.00,FEW,,0.00,0.0,WeatherDisplay:10.37,2013-08-22 07:11:00,
2013-08-22 03:16:00,70.1,65.4,29.95,SSW,202,2.0,5.0,85,0.00,FEW,,0.00,0.0,WeatherDisplay:10.37,2013-08-22 07:16:00,
2013-08-22 03:21:00,70.1,65.4,29.95,SSW,207,1.0,8.0,85,0.00,FEW,,0.00,0.0,WeatherDisplay:10.37,2013-08-22 07:21:00,
2013-08-22 03:26:00,70.2,65.4,29.95,SSW,202,1.0,6.0,85,0.00,FEW,,0.00,0.0,WeatherDisplay:10.37,2013-08-22 07:26:00,
2013-08-22 03:31:00,70.3,65.2,29.95,SSW,203,1.0,8.0,84,0.00,FEW,,0.00,0.0,WeatherDisplay:10.37,2013-08-22 07:31:00,
2013-08-22 03:36:00,70.3,65.2,29.95,SSW,209,3.0,7.0,84,0.00,FEW,,0.00,0.0,WeatherDisplay:10.37,2013-08-22 07:36:00,
2013-08-22 03:41:00,70.4,65.0,29.95,SSW,203,1.0,9.0,83,0.00,FEW,,0.00,0.0,WeatherDisplay:10.37,2013-08-22 07:41:00,
2013-08-22 03:46:00,70.4,65.0,29.94,SSW,200,1.0,7.0,83,0.00,FEW,,0.00,0.0,WeatherDisplay:10.37,2013-08-22 07:46:00,
2013-08-22 03:51:00,70.4,65.0,29.94,SSW,196,2.0,6.0,83,0.00,FEW,,0.00,0.0,WeatherDisplay:10.37,2013-08-22 07:51:00,
2013-08-22 03:56:00,70.4,65.0,29.94,SSW,194,1.0,9.0,83,0.00,FEW,,0.00,0.0,WeatherDisplay:10.37,2013-08-22 07:56:00,
2013-08-22 04:01:00,70.4,65.0,29.94,SSW,206,0.0,7.0,83,0.00,FEW,,0.00,0.0,WeatherDisplay:10.37,2013-08-22 08:01:00,
2013-08-22 04:06:00,70.3,64.9,29.94,SSW,211,0.0,4.0,83,0.00,FEW,,0.00,0.0,WeatherDisplay:10.37,2013-08-22 08:06:00,
2013-08-22 04:11:00,70.3,64.9,29.94,SSW,206,2.0,7.0,83,0.00,FEW,,0.00,0.0,WeatherDisplay:10.37,2013-08-22 08:11:00,
2013-08-22 04:16:00,70.1,65.0,29.94,SSW,209,3.0,7.0,84,0.00,FEW,,0.00,0.0,WeatherDisplay:10.37,2013-08-22 08:16:00,
2013-08-22 04:21:00,69.9,64.8,29.94,SSW,203,2.0,6.0,84,0.00,FEW,,0.00,0.0,WeatherDisplay:10.37,2013-08-22 08:21:00,
2013-08-22 04:26:00,69.9,64.8,29.94,SSW,200,2.0,6.0,84,0.00,FEW,,0.00,0.0,WeatherDisplay:10.37,2013-08-22 08:26:00,
2013-08-22 04:31:00,69.7,65.0,29.94,SSW,202,2.0,8.0,85,0.00,FEW,,0.00,0.0,WeatherDisplay:10.37,2013-08-22 08:31:00,
2013-08-22 04:36:00,69.7,64.6,29.94,SSW,201,2.0,6.0,84,0.00,FEW,,0.00,0.0,WeatherDisplay:10.37,2013-08-22 08:36:00,
2013-08-22 04:41:00,69.7,64.6,29.94,SSW,202,0.0,3.0,84,0.00,FEW,,0.00,0.0,WeatherDisplay:10.37,2013-08-22 08:41:00,
2013-08-22 04:46:00,69.7,64.6,29.94,SSW,205,2.0,6.0,84,0.00,FEW,,0.00,0.0,WeatherDisplay:10.37,2013-08-22 08:46:00,
2013-08-22 04:51:00,69.6,64.9,29.94,SSW,210,0.0,5.0,85,0.00,FEW,,0.00,0.0,WeatherDisplay:10.37,2013-08-22 08:51:00,
2013-08-22 05:01:00,69.7,65.0,29.94,SSW,212,2.0,7.0,85,0.00,FEW,,0.00,0.0,WeatherDisplay:10.37,2013-08-22 09:01:00,
2013-08-22 05:11:00,69.6,65.2,29.94,SSW,212,1.0,6.0,86,0.00,FEW,,0.00,0.0,WeatherDisplay:10.37,2013-08-22 09:11:00,
2013-08-22 05:16:00,69.6,65.2,29.94,SW,221,0.0,3.0,86,0.00,FEW,,0.00,0.0,WeatherDisplay:10.37,2013-08-22 09:16:00,
2013-08-22 05:21:00,69.7,65.3,29.94,SSW,207,1.0,7.0,86,0.00,FEW,,0.00,0.0,WeatherDisplay:10.37,2013-08-22 09:21:00,
2013-08-22 05:26:00,69.7,65.7,29.94,SSW,206,3.0,10.0,87,0.00,FEW,,0.00,0.0,WeatherDisplay:10.37,2013-08-22 09:26:00,
2013-08-22 05:31:00,69.7,65.7,29.93,SW,216,1.0,10.0,87,0.00,FEW,,0.00,0.0,WeatherDisplay:10.37,2013-08-22 09:31:00,
2013-08-22 05:36:00,69.7,65.7,29.93,SW,215,2.0,7.0,87,0.00,FEW,,0.00,0.0,WeatherDisplay:10.37,2013-08-22 09:36:00,
2013-08-22 05:41:00,69.7,65.7,29.93,SW,219,3.0,6.0,87,0.00,FEW,,0.00,0.0,WeatherDisplay:10.37,2013-08-22 09:41:00,
2013-08-22 05:46:00,69.7,65.7,29.93,SSW,209,2.0,7.0,87,0.00,FEW,,0.00,0.0,WeatherDisplay:10.37,2013-08-22 09:46:00,
2013-08-22 05:51:00,69.7,65.7,29.93,SSW,199,2.0,7.0,87,0.00,FEW,,0.00,0.0,WeatherDisplay:10.37,2013-08-22 09:51:00,
2013-08-22 06:01:00,69.6,65.6,29.92,SSW,213,2.0,7.0,87,0.00,FEW,,0.00,0.0,WeatherDisplay:10.37,2013-08-22 10:01:00,
2013-08-22 06:06:00,69.6,65.9,29.92,SSW,204,1.0,7.0,88,0.00,FEW,,0.00,0.0,WeatherDisplay:10.37,2013-08-22 10:06:00,
2013-08-22 06:11:00,69.6,65.9,29.92,SSW,202,2.0,8.0,88,0.00,FEW,,0.00,0.0,WeatherDisplay:10.37,2013-08-22 10:11:00,
2013-08-22 06:16:00,69.6,65.9,29.92,SSW,196,0.0,7.0,88,0.00,FEW,,0.00,0.0,WeatherDisplay:10.37,2013-08-22 10:16:00,
2013-08-22 06:21:00,69.6,65.9,29.92,South,184,2.0,7.0,88,0.00,SCT,,0.00,0.0,WeatherDisplay:10.37,2013-08-22 10:21:00,
2013-08-22 06:26:00,69.7,66.3,29.92,South,190,1.0,8.0,89,0.00,SCT,,0.00,0.0,WeatherDisplay:10.37,2013-08-22 10:26:00,
2013-08-22 06:31:00,69.7,66.3,29.92,South,185,5.0,10.0,89,0.00,SCT,,0.00,0.0,WeatherDisplay:10.37,2013-08-22 10:31:00,
2013-08-22 06:36:00,69.7,66.3,29.92,South,188,1.0,6.0,89,0.00,SCT,,0.00,0.0,WeatherDisplay:10.37,2013-08-22 10:36:00,
2013-08-22 06:41:00,69.7,66.3,29.92,SSW,204,2.0,8.0,89,0.00,SCT,,0.00,0.0,WeatherDisplay:10.37,2013-08-22 10:41:00,
2013-08-22 06:46:00,69.9,66.5,29.92,SSW,209,2.0,6.0,89,0.00,SCT,,0.00,0.0,WeatherDisplay:10.37,2013-08-22 10:46:00,
2013-08-22 08:31:00,73.3,69.2,29.94,SW,216,2.0,12.0,87,0.00,BKN,,0.00,0.0,WeatherDisplay:10.37,2013-08-22 12:31:00,
2013-08-22 08:36:00,73.6,69.5,29.94,SW,214,3.0,12.0,87,0.00,BKN,,0.00,0.0,WeatherDisplay:10.37,2013-08-22 12:36:00,
2013-08-22 08:41:00,73.9,69.4,29.94,SSW,211,5.0,10.0,86,0.00,BKN,,0.00,0.0,WeatherDisplay:10.37,2013-08-22 12:41:00,
2013-08-22 08:46:00,74.1,69.3,29.94,SSW,203,2.0,8.0,85,0.00,BKN,,0.00,0.0,WeatherDisplay:10.37,2013-08-22 12:46:00,
2013-08-22 08:51:00,74.2,69.4,29.94,SW,218,5.0,7.0,85,0.00,FEW,,0.00,0.0,WeatherDisplay:10.37,2013-08-22 12:51:00,
2013-08-22 09:01:00,74.9,69.4,29.94,WSW,237,5.0,12.0,83,0.00,FEW,,0.00,0.0,WeatherDisplay:10.37,2013-08-22 13:01:00,
2013-08-22 09:06:00,75.3,69.4,29.94,WSW,238,2.0,12.0,82,0.00,FEW,,0.00,0.0,WeatherDisplay:10.37,2013-08-22 13:06:00,
2013-08-22 09:11:00,75.6,69.4,29.94,WSW,245,7.0,12.0,81,0.00,FEW,,0.00,0.0,WeatherDisplay:10.37,2013-08-22 13:11:00,
2013-08-22 09:21:00,75.8,69.2,29.94,WSW,237,5.0,9.0,80,0.00,FEW,,0.00,0.0,WeatherDisplay:10.37,2013-08-22 13:21:00,
2013-08-22 09:26:00,75.9,68.9,29.94,SW,234,3.0,12.0,79,0.00,FEW,,0.00,0.0,WeatherDisplay:10.37,2013-08-22 13:26:00,
2013-08-22 09:31:00,76.0,69.0,29.95,WSW,239,8.0,13.0,79,0.00,FEW,,0.00,0.0,WeatherDisplay:10.37,2013-08-22 13:31:00,
2013-08-22 09:36:00,76.0,69.0,29.95,WSW,243,5.0,10.0,79,0.00,FEW,,0.00,0.0,WeatherDisplay:10.37,2013-08-22 13:36:00,
2013-08-22 09:41:00,76.0,68.6,29.95,WSW,245,5.0,12.0,78,0.00,FEW,,0.00,0.0,WeatherDisplay:10.37,2013-08-22 13:41:00,
2013-08-22 09:51:00,76.4,68.7,29.95,WSW,255,9.0,18.0,77,0.00,FEW,,0.00,0.0,WeatherDisplay:10.37,2013-08-22 13:51:00,
2013-08-22 09:56:00,76.5,68.7,29.95,WSW,248,9.0,18.0,77,0.00,FEW,,0.00,0.0,WeatherDisplay:10.37,2013-08-22 13:56:00,
2013-08-22 10:01:00,76.7,69.3,29.94,WSW,244,2.0,10.0,78,0.00,FEW,,0.00,0.0,WeatherDisplay:10.37,2013-08-22 14:01:00,
2013-08-22 10:06:00,76.9,69.1,29.94,WSW,248,5.0,10.0,77,0.00,FEW,,0.00,0.0,WeatherDisplay:10.37,2013-08-22 14:06:00,
2013-08-22 10:11:00,76.9,68.8,29.94,WSW,244,2.0,7.0,76,0.00,FEW,,0.00,0.0,WeatherDisplay:10.37,2013-08-22 14:11:00,
2013-08-22 10:16:00,77.1,69.3,29.94,SW,232,0.0,10.0,77,0.00,FEW,,0.00,0.0,WeatherDisplay:10.37,2013-08-22 14:16:00,
2013-08-22 10:21:00,77.4,68.9,29.94,SW,226,7.0,12.0,75,0.00,OVC,,0.00,0.0,WeatherDisplay:10.37,2013-08-22 14:21:00,
2013-08-22 10:26:00,77.6,69.0,29.94,SW,234,5.0,18.0,75,0.00,OVC,,0.00,0.0,WeatherDisplay:10.37,2013-08-22 14:26:00,
2013-08-22 10:31:00,77.8,68.4,29.94,WSW,243,3.0,12.0,73,0.00,OVC,,0.00,0.0,WeatherDisplay:10.37,2013-08-22 14:31:00,
2013-08-22 10:36:00,78.1,69.1,29.94,WSW,243,3.0,12.0,74,0.00,OVC,,0.00,0.0,WeatherDisplay:10.37,2013-08-22 14:36:00,
2013-08-22 10:41:00,78.6,68.8,29.94,WSW,245,5.0,12.0,72,0.00,OVC,,0.00,0.0,WeatherDisplay:10.37,2013-08-22 14:41:00,
2013-08-22 10:51:00,78.7,68.1,29.93,SW,228,6.0,14.0,70,0.00,OVC,,0.00,0.0,WeatherDisplay:10.37,2013-08-22 14:51:00,
2013-08-22 11:01:00,78.3,68.6,29.93,SW,229,6.0,13.0,72,0.00,OVC,,0.00,0.0,WeatherDisplay:10.37,2013-08-22 15:01:00,
2013-08-22 11:06:00,77.0,67.7,29.93,SW,230,3.0,12.0,73,0.00,OVC,,0.00,0.0,WeatherDisplay:10.37,2013-08-22 15:06:00,
2013-08-22 11:11:00,76.1,68.0,29.93,SW,231,3.0,7.0,76,0.00,OVC,,0.00,0.0,WeatherDisplay:10.37,2013-08-22 15:11:00,
2013-08-22 11:16:00,75.3,67.6,29.92,SW,223,2.0,8.0,77,0.01,RA,,0.01,0.0,WeatherDisplay:10.37,2013-08-22 15:16:00,
2013-08-22 11:21:00,74.8,67.1,29.92,SSW,208,2.0,8.0,77,0.00,RA,,0.01,0.0,WeatherDisplay:10.37,2013-08-22 15:21:00,
2013-08-22 11:26:00,74.7,67.3,29.92,SSW,200,0.0,6.0,78,0.00,OVC,,0.01,0.0,WeatherDisplay:10.37,2013-08-22 15:26:00,
2013-08-22 11:31:00,74.9,68.3,29.92,SW,234,2.0,10.0,80,0.00,OVC,,0.01,0.0,WeatherDisplay:10.37,2013-08-22 15:31:00,
2013-08-22 11:41:00,75.7,68.8,29.92,SW,232,2.0,8.0,79,0.00,BKN,,0.01,0.0,WeatherDisplay:10.37,2013-08-22 15:41:00,
2013-08-22 11:46:00,76.2,68.1,29.95,WSW,245,3.0,9.0,76,0.00,BKN,,0.01,0.0,WeatherDisplay:10.37,2013-08-22 15:46:00,
2013-08-22 11:51:00,76.4,68.3,29.95,West,268,3.0,7.0,76,0.00,BKN,,0.01,0.0,WeatherDisplay:10.37,2013-08-22 15:51:00,
2013-08-22 11:56:00,76.2,68.1,29.95,WNW,291,1.0,4.0,76,0.00,BKN,,0.01,0.0,WeatherDisplay:10.37,2013-08-22 15:56:00,
2013-08-22 12:01:00,76.4,67.9,29.94,West,265,3.0,9.0,75,0.00,BKN,,0.01,0.0,WeatherDisplay:10.37,2013-08-22 16:01:00,
2013-08-22 12:06:00,76.7,66.6,29.94,WSW,249,6.0,12.0,71,0.00,BKN,,0.01,0.0,WeatherDisplay:10.37,2013-08-22 16:06:00,
2013-08-22 12:11:00,77.1,67.4,29.94,WSW,252,3.0,12.0,72,0.00,BKN,,0.01,0.0,WeatherDisplay:10.37,2013-08-22 16:11:00,
2013-08-22 12:16:00,77.3,68.0,29.94,West,262,0.0,6.0,73,0.00,BKN,,0.01,0.0,WeatherDisplay:10.37,2013-08-22 16:16:00,
2013-08-22 12:21:00,77.4,68.1,29.94,West,274,5.0,10.0,73,0.00,BKN,,0.01,0.0,WeatherDisplay:10.37,2013-08-22 16:21:00,
2013-08-22 12:31:00,77.1,67.4,29.94,West,276,1.0,7.0,72,0.00,BKN,,0.01,0.0,WeatherDisplay:10.37,2013-08-22 16:31:00,
2013-08-22 12:36:00,76.9,66.8,29.94,West,277,7.0,13.0,71,0.00,BKN,,0.01,0.0,WeatherDisplay:10.37,2013-08-22 16:36:00,
2013-08-22 12:41:00,77.1,66.6,29.94,West,274,3.0,8.0,70,0.00,BKN,,0.01,0.0,WeatherDisplay:10.37,2013-08-22 16:41:00,
2013-08-22 12:51:00,77.6,66.6,29.94,WNW,291,5.0,10.0,69,0.00,BKN,,0.01,0.0,WeatherDisplay:10.37,2013-08-22 16:51:00,
2013-08-22 13:01:00,78.2,66.8,29.94,West,272,5.0,10.0,68,0.00,BKN,,0.01,0.0,WeatherDisplay:10.37,2013-08-22 17:01:00,
2013-08-22 13:11:00,78.9,67.9,29.94,West,265,2.0,10.0,69,0.00,BKN,,0.01,0.0,WeatherDisplay:10.37,2013-08-22 17:11:00,
2013-08-22 13:21:00,80.5,68.1,29.94,West,280,0.0,9.0,66,0.00,BKN,,0.01,0.0,WeatherDisplay:10.37,2013-08-22 17:21:00,
2013-08-22 13:31:00,81.2,67.9,29.93,West,277,6.0,9.0,64,0.00,BKN,,0.01,0.0,WeatherDisplay:10.37,2013-08-22 17:31:00,
2013-08-22 13:36:00,81.0,68.6,29.93,WNW,293,1.0,6.0,66,0.00,BKN,,0.01,0.0,WeatherDisplay:10.37,2013-08-22 17:36:00,
2013-08-22 13:41:00,81.4,68.1,29.93,WNW,303,2.0,7.0,64,0.00,BKN,,0.01,455.0,WeatherDisplay:10.37,2013-08-22 17:41:00,
2013-08-22 13:46:00,82.1,68.2,29.92,WNW,300,1.0,7.0,63,0.00,BKN,,0.01,506.0,WeatherDisplay:10.37,2013-08-22 17:46:00,
2013-08-22 13:51:00,82.4,68.1,29.92,WNW,287,2.0,9.0,62,0.00,BKN,,0.01,0.0,WeatherDisplay:10.37,2013-08-22 17:51:00,
2013-08-22 13:56:00,82.0,68.2,29.92,NW,310,0.0,8.0,63,0.00,BKN,,0.01,0.0,WeatherDisplay:10.37,2013-08-22 17:56:00,
2013-08-22 14:01:00,81.2,67.0,29.92,NNW,338,5.0,7.0,62,0.00,BKN,,0.01,529.0,WeatherDisplay:10.37,2013-08-22 18:01:00,
2013-08-22 14:06:00,81.3,68.4,29.92,NW,325,1.0,7.0,65,0.00,BKN,,0.01,557.0,WeatherDisplay:10.37,2013-08-22 18:06:00,
2013-08-22 14:11:00,81.7,66.0,29.92,NW,311,6.0,10.0,59,0.00,BKN,,0.01,0.0,WeatherDisplay:10.37,2013-08-22 18:11:00,
2013-08-22 14:16:00,82.3,67.0,29.93,WNW,295,3.0,12.0,60,0.00,BKN,,0.01,499.0,WeatherDisplay:10.37,2013-08-22 18:16:00,
2013-08-22 14:21:00,82.8,66.0,29.93,WNW,297,3.0,9.0,57,0.00,BKN,,0.01,0.0,WeatherDisplay:10.37,2013-08-22 18:21:00,
2013-08-22 14:26:00,82.8,67.0,29.93,WNW,298,2.0,12.0,59,0.00,BKN,,0.01,499.0,WeatherDisplay:10.37,2013-08-22 18:26:00,
2013-08-22 14:31:00,82.8,67.0,29.93,West,276,3.0,12.0,59,0.00,BKN,,0.01,396.0,WeatherDisplay:10.37,2013-08-22 18:31:00,
2013-08-22 14:36:00,83.1,66.3,29.93,West,265,5.0,12.0,57,0.00,BKN,,0.01,432.0,WeatherDisplay:10.37,2013-08-22 18:36:00,
2013-08-22 14:41:00,83.7,67.9,29.93,West,278,3.0,8.0,59,0.00,BKN,,0.01,455.0,WeatherDisplay:10.37,2013-08-22 18:41:00,
2013-08-22 14:51:00,83.5,66.1,29.92,West,276,5.0,12.0,56,0.00,BKN,,0.01,0.0,WeatherDisplay:10.37,2013-08-22 18:51:00,
2013-08-22 14:56:00,82.8,66.5,29.92,WNW,283,2.0,7.0,58,0.00,BKN,,0.01,385.0,WeatherDisplay:10.37,2013-08-22 18:56:00,
2013-08-22 15:01:00,83.1,66.3,29.92,WNW,294,5.0,8.0,57,0.00,BKN,,0.01,383.0,WeatherDisplay:10.37,2013-08-22 19:01:00,
2013-08-22 15:06:00,84.0,64.5,29.92,WNW,284,7.0,12.0,52,0.00,BKN,,0.01,355.0,WeatherDisplay:10.37,2013-08-22 19:06:00,
2013-08-22 15:11:00,84.5,63.8,29.92,WNW,286,7.0,14.0,50,0.00,BKN,,0.01,378.0,WeatherDisplay:10.37,2013-08-22 19:11:00,
2013-08-22 15:21:00,85.3,64.6,29.92,West,281,2.0,10.0,50,0.00,BKN,,0.01,364.0,WeatherDisplay:10.37,2013-08-22 19:21:00,
2013-08-22 15:26:00,85.6,63.7,29.92,WNW,283,6.0,12.0,48,0.00,BKN,,0.01,364.0,WeatherDisplay:10.37,2013-08-22 19:26:00,
2013-08-22 15:31:00,86.0,64.6,29.92,WNW,297,3.0,12.0,49,0.00,BKN,,0.01,0.0,WeatherDisplay:10.37,2013-08-22 19:31:00,
2013-08-22 15:36:00,85.5,64.2,29.92,WNW,298,6.0,12.0,49,0.00,BKN,,0.01,241.0,WeatherDisplay:10.37,2013-08-22 19:36:00,
2013-08-22 15:41:00,85.4,63.4,29.92,WNW,291,7.0,14.0,48,0.00,BKN,,0.01,237.0,WeatherDisplay:10.37,2013-08-22 19:41:00,
2013-08-22 15:46:00,85.1,63.8,29.91,WNW,296,7.0,15.0,49,0.00,BKN,,0.01,63.0,WeatherDisplay:10.37,2013-08-22 19:46:00,
2013-08-22 15:51:00,84.9,63.0,29.91,NW,306,7.0,17.0,48,0.00,BKN,,0.01,267.0,WeatherDisplay:10.37,2013-08-22 19:51:00,
2013-08-22 15:56:00,84.7,63.4,29.91,WNW,288,6.0,13.0,49,0.00,BKN,,0.01,193.0,WeatherDisplay:10.37,2013-08-22 19:56:00,
2013-08-22 16:01:00,84.7,63.4,29.91,West,281,3.0,12.0,49,0.00,BKN,,0.01,49.0,WeatherDisplay:10.37,2013-08-22 20:01:00,
2013-08-22 16:06:00,84.5,62.7,29.91,WNW,283,6.0,12.0,48,0.00,BKN,,0.01,0.0,WeatherDisplay:10.37,2013-08-22 20:06:00,
2013-08-22 16:11:00,84.3,64.2,29.91,WNW,297,2.0,8.0,51,0.00,BKN,,0.01,0.0,WeatherDisplay:10.37,2013-08-22 20:11:00,
2013-08-22 16:16:00,83.8,63.2,29.91,NW,308,6.0,10.0,50,0.00,BKN,,0.01,0.0,WeatherDisplay:10.37,2013-08-22 20:16:00,
2013-08-22 16:21:00,83.3,62.7,29.91,WNW,303,3.0,10.0,50,0.00,BKN,,0.01,0.0,WeatherDisplay:10.37,2013-08-22 20:21:00,
2013-08-22 16:26:00,83.1,63.7,29.91,WNW,290,5.0,9.0,52,0.00,BKN,,0.01,0.0,WeatherDisplay:10.37,2013-08-22 20:26:00,
2013-08-22 16:31:00,82.8,63.4,29.91,WNW,286,2.0,7.0,52,0.00,BKN,,0.01,0.0,WeatherDisplay:10.37,2013-08-22 20:31:00,
2013-08-22 16:36:00,82.7,63.3,29.91,WNW,292,3.0,7.0,52,0.00,BKN,,0.01,0.0,WeatherDisplay:10.37,2013-08-22 20:36:00,
2013-08-22 16:41:00,82.2,63.4,29.91,NW,305,1.0,8.0,53,0.00,BKN,,0.01,0.0,WeatherDisplay:10.37,2013-08-22 20:41:00,
2013-08-22 16:46:00,81.4,63.7,29.91,NNW,330,2.0,7.0,55,0.00,BKN,,0.01,0.0,WeatherDisplay:10.37,2013-08-22 20:46:00,
2013-08-22 16:51:00,80.4,63.3,29.91,NNW,337,3.0,6.0,56,0.00,BKN,,0.01,0.0,WeatherDisplay:10.37,2013-08-22 20:51:00,
2013-08-22 17:01:00,79.5,63.4,29.91,NNW,332,0.0,4.0,58,0.00,BKN,,0.01,0.0,WeatherDisplay:10.37,2013-08-22 21:01:00,
2013-08-22 17:06:00,79.3,63.2,29.91,NNW,331,1.0,4.0,58,0.00,BKN,,0.01,0.0,WeatherDisplay:10.37,2013-08-22 21:06:00,
2013-08-22 17:11:00,79.6,63.0,29.91,NW,325,2.0,6.0,57,0.00,BKN,,0.01,163.0,WeatherDisplay:10.37,2013-08-22 21:11:00,
2013-08-22 17:21:00,80.8,62.1,29.91,NNW,333,5.0,10.0,53,0.00,BKN,,0.01,72.0,WeatherDisplay:10.37,2013-08-22 21:21:00,
2013-08-22 17:31:00,80.2,63.1,29.91,NNW,344,2.0,5.0,56,0.00,BKN,,0.01,0.0,WeatherDisplay:10.37,2013-08-22 21:31:00,
2013-08-22 17:36:00,79.6,63.0,29.91,NNW,340,2.0,5.0,57,0.00,BKN,,0.01,0.0,WeatherDisplay:10.37,2013-08-22 21:36:00,
2013-08-22 17:51:00,77.8,63.3,29.92,NNW,348,0.0,3.0,61,0.00,BKN,,0.01,0.0,WeatherDisplay:10.37,2013-08-22 21:51:00,
2013-08-22 17:56:00,77.8,63.2,29.92,NNW,347,1.0,3.0,61,0.00,BKN,,0.01,0.0,WeatherDisplay:10.37,2013-08-22 21:56:00,
2013-08-22 18:01:00,77.8,63.3,29.92,North,352,0.0,3.0,61,0.00,BKN,,0.01,0.0,WeatherDisplay:10.37,2013-08-22 22:01:00,
2013-08-22 18:06:00,78.0,63.5,29.92,NNW,343,2.0,6.0,61,0.00,BKN,,0.01,0.0,WeatherDisplay:10.37,2013-08-22 22:06:00,
2013-08-22 18:11:00,78.2,62.7,29.92,NNW,336,0.0,4.0,59,0.00,BKN,,0.01,0.0,WeatherDisplay:10.37,2013-08-22 22:11:00,
2013-08-22 18:16:00,78.7,61.7,29.92,NNW,333,2.0,6.0,56,0.00,BKN,,0.01,0.0,WeatherDisplay:10.37,2013-08-22 22:16:00,
2013-08-22 18:21:00,79.1,61.0,29.92,NW,326,1.0,6.0,54,0.00,BKN,,0.01,0.0,WeatherDisplay:10.37,2013-08-22 22:21:00,
2013-08-22 18:26:00,79.5,60.9,29.92,NW,318,0.0,4.0,53,0.00,BKN,,0.01,0.0,WeatherDisplay:10.37,2013-08-22 22:26:00,
2013-08-22 18:31:00,79.9,60.7,29.92,NW,317,0.0,2.0,52,0.00,BKN,,0.01,0.0,WeatherDisplay:10.37,2013-08-22 22:31:00,
2013-08-22 18:36:00,80.2,61.0,29.92,NW,317,0.0,3.0,52,0.00,BKN,,0.01,0.0,WeatherDisplay:10.37,2013-08-22 22:36:00,
2013-08-22 18:41:00,80.2,61.0,29.92,NW,317,1.0,3.0,52,0.00,BKN,,0.01,0.0,WeatherDisplay:10.37,2013-08-22 22:41:00,
2013-08-22 18:46:00,80.0,60.8,29.92,NW,317,0.0,2.0,52,0.00,BKN,,0.01,0.0,WeatherDisplay:10.37,2013-08-22 22:46:00,
2013-08-22 18:51:00,79.7,60.0,29.92,NW,317,0.0,5.0,51,0.00,BKN,,0.01,0.0,WeatherDisplay:10.37,2013-08-22 22:51:00,
2013-08-22 19:01:00,78.7,58.5,29.92,NNW,329,1.0,4.0,50,0.00,BKN,,0.01,0.0,WeatherDisplay:10.37,2013-08-22 23:01:00,
2013-08-22 19:06:00,78.2,58.6,29.92,NW,322,1.0,8.0,51,0.00,BKN,,0.01,0.0,WeatherDisplay:10.37,2013-08-22 23:06:00,
2013-08-22 19:11:00,77.7,58.1,29.92,NNW,327,2.0,5.0,51,0.00,BKN,,0.01,0.0,WeatherDisplay:10.37,2013-08-22 23:11:00,
2013-08-22 19:16:00,77.3,57.8,29.93,NNW,340,0.0,4.0,51,0.00,BKN,,0.01,0.0,WeatherDisplay:10.37,2013-08-22 23:16:00,
2013-08-22 19:21:00,77.0,58.1,29.93,NNW,340,0.0,2.0,52,0.00,BKN,,0.01,0.0,WeatherDisplay:10.37,2013-08-22 23:21:00,
2013-08-22 19:26:00,76.7,57.7,29.93,NNW,340,0.0,1.0,52,0.00,BKN,,0.01,0.0,WeatherDisplay:10.37,2013-08-22 23:26:00,
2013-08-22 19:31:00,76.4,57.5,29.93,NNW,340,0.0,3.0,52,0.00,BKN,,0.01,0.0,WeatherDisplay:10.37,2013-08-22 23:31:00,
2013-08-22 19:36:00,76.1,56.7,29.93,NNW,340,0.0,1.0,51,0.00,BKN,,0.01,0.0,WeatherDisplay:10.37,2013-08-22 23:36:00,
2013-08-22 19:41:00,75.8,57.4,29.93,NNW,340,0.0,3.0,53,0.00,BKN,,0.01,0.0,WeatherDisplay:10.37,2013-08-22 23:41:00,
2013-08-22 19:51:00,75.1,56.8,29.94,NNW,340,0.0,1.0,53,0.00,BKN,,0.01,0.0,WeatherDisplay:10.37,2013-08-22 23:51:00,
2013-08-22 19:56:00,74.8,57.0,29.94,NNW,339,0.0,0.0,54,0.00,BKN,,0.01,0.0,WeatherDisplay:10.37,2013-08-22 23:56:00,
2013-08-22 20:01:00,74.5,56.8,29.94,NNW,338,0.0,1.0,54,0.00,BKN,,0.01,0.0,WeatherDisplay:10.37,2013-08-23 00:01:00,
2013-08-22 20:06:00,74.2,57.0,29.94,NNW,338,0.0,1.0,55,0.00,BKN,,0.01,0.0,WeatherDisplay:10.37,2013-08-23 00:06:00,
2013-08-22 20:11:00,74.1,56.9,29.94,NNW,338,0.0,0.0,55,0.00,BKN,,0.01,0.0,WeatherDisplay:10.37,2013-08-23 00:11:00,
2013-08-22 20:16:00,73.9,56.2,29.94,NNW,338,0.0,2.0,54,0.00,BKN,,0.01,0.0,WeatherDisplay:10.37,2013-08-23 00:16:00,
2013-08-22 20:21:00,73.7,56.0,29.94,NNW,332,0.0,5.0,54,0.00,BKN,,0.01,0.0,WeatherDisplay:10.37,2013-08-23 00:21:00,
2013-08-22 20:26:00,73.7,56.5,29.94,NNW,330,0.0,3.0,55,0.00,BKN,,0.01,0.0,WeatherDisplay:10.37,2013-08-23 00:26:00,
2013-08-22 20:31:00,73.5,56.8,29.94,NNW,330,0.0,1.0,56,0.00,BKN,,0.01,0.0,WeatherDisplay:10.37,2013-08-23 00:31:00,
2013-08-22 20:36:00,73.2,57.1,29.94,NNW,330,0.0,2.0,57,0.00,BKN,,0.01,0.0,WeatherDisplay:10.37,2013-08-23 00:36:00,
2013-08-22 20:41:00,73.0,56.9,29.94,NNW,330,0.0,0.0,57,0.00,BKN,,0.01,0.0,WeatherDisplay:10.37,2013-08-23 00:41:00,
2013-08-22 20:46:00,72.7,57.1,29.95,NNW,330,0.0,4.0,58,0.00,BKN,,0.01,0.0,WeatherDisplay:10.37,2013-08-23 00:46:00,
2013-08-22 20:51:00,72.5,56.9,29.95,NNW,330,0.0,1.0,58,0.00,BKN,,0.01,0.0,WeatherDisplay:10.37,2013-08-23 00:51:00,
2013-08-22 20:56:00,72.1,56.5,29.95,NNW,330,0.0,0.0,58,0.00,BKN,,0.01,0.0,WeatherDisplay:10.37,2013-08-23 00:56:00,
2013-08-22 21:01:00,72.0,56.9,29.95,NNW,330,0.0,0.0,59,0.00,BKN,,0.01,0.0,WeatherDisplay:10.37,2013-08-23 01:01:00,
2013-08-22 21:06:00,71.8,56.7,29.95,NNW,330,0.0,3.0,59,0.00,BKN,,0.01,0.0,WeatherDisplay:10.37,2013-08-23 01:06:00,
2013-08-22 21:11:00,71.6,56.5,29.95,NNW,330,0.0,0.0,59,0.00,BKN,,0.01,0.0,WeatherDisplay:10.37,2013-08-23 01:11:00,
2013-08-22 21:16:00,71.5,55.9,29.96,NNW,330,0.0,3.0,58,0.00,BKN,,0.01,0.0,WeatherDisplay:10.37,2013-08-23 01:16:00,
2013-08-22 21:21:00,71.3,55.8,29.96,NNW,330,0.0,2.0,58,0.00,BKN,,0.01,0.0,WeatherDisplay:10.37,2013-08-23 01:21:00,
2013-08-22 21:26:00,71.3,55.8,29.96,NNW,332,3.0,10.0,58,0.00,BKN,,0.01,0.0,WeatherDisplay:10.37,2013-08-23 01:26:00,
2013-08-22 21:31:00,71.6,55.6,29.97,NNW,333,3.0,10.0,57,0.00,BKN,,0.01,0.0,WeatherDisplay:10.37,2013-08-23 01:31:00,
2013-08-22 21:36:00,72.0,55.5,29.97,NW,326,5.0,12.0,56,0.00,BKN,,0.01,0.0,WeatherDisplay:10.37,2013-08-23 01:36:00,
2013-08-22 21:41:00,72.3,55.7,29.97,NW,325,1.0,8.0,56,0.00,BKN,,0.01,0.0,WeatherDisplay:10.37,2013-08-23 01:41:00,
2013-08-22 21:46:00,72.5,55.9,29.96,NNW,330,1.0,8.0,56,0.00,BKN,,0.01,0.0,WeatherDisplay:10.37,2013-08-23 01:46:00,
2013-08-22 21:51:00,72.5,55.4,29.96,NNW,328,1.0,6.0,55,0.00,BKN,,0.01,0.0,WeatherDisplay:10.37,2013-08-23 01:51:00,
2013-08-22 22:01:00,72.3,55.2,29.97,NW,320,1.0,7.0,55,0.00,BKN,,0.01,0.0,WeatherDisplay:10.37,2013-08-23 02:01:00,
2013-08-22 22:06:00,72.3,55.2,29.97,NNW,328,0.0,4.0,55,0.00,BKN,,0.01,0.0,WeatherDisplay:10.37,2013-08-23 02:06:00,
2013-08-22 22:11:00,72.1,55.5,29.97,NNW,336,0.0,6.0,56,0.00,BKN,,0.01,0.0,WeatherDisplay:10.37,2013-08-23 02:11:00,
2013-08-22 22:16:00,71.8,55.7,29.97,NNW,338,0.0,0.0,57,0.00,BKN,,0.01,0.0,WeatherDisplay:10.37,2013-08-23 02:16:00,
2013-08-22 22:21:00,71.4,55.9,29.97,NNW,338,0.0,0.0,58,0.00,BKN,,0.01,0.0,WeatherDisplay:10.37,2013-08-23 02:21:00,
2013-08-22 22:26:00,70.9,55.9,29.97,NNW,338,0.0,0.0,59,0.00,BKN,,0.01,0.0,WeatherDisplay:10.37,2013-08-23 02:26:00,
2013-08-22 22:31:00,70.6,55.6,29.97,NNW,338,1.0,4.0,59,0.00,BKN,,0.01,0.0,WeatherDisplay:10.37,2013-08-23 02:31:00,
2013-08-22 22:36:00,70.3,55.8,29.97,NNW,337,0.0,3.0,60,0.00,BKN,,0.01,0.0,WeatherDisplay:10.37,2013-08-23 02:36:00,
2013-08-22 22:41:00,70.1,56.0,29.97,NNW,336,1.0,4.0,61,0.00,BKN,,0.01,0.0,WeatherDisplay:10.37,2013-08-23 02:41:00,
2013-08-22 22:46:00,70.1,55.6,29.98,NNW,336,0.0,3.0,60,0.00,BKN,,0.01,0.0,WeatherDisplay:10.37,2013-08-23 02:46:00,
2013-08-22 22:51:00,70.1,55.1,29.98,NNW,336,0.0,4.0,59,0.00,BKN,,0.01,0.0,WeatherDisplay:10.37,2013-08-23 02:51:00,
2013-08-22 22:56:00,70.4,54.0,29.98,NNW,343,1.0,5.0,56,0.00,BKN,,0.01,0.0,WeatherDisplay:10.37,2013-08-23 02:56:00,
2013-08-22 23:01:00,70.6,54.6,29.98,NNW,340,1.0,4.0,57,0.00,BKN,,0.01,0.0,WeatherDisplay:10.37,2013-08-23 03:01:00,
2013-08-22 23:06:00,70.8,54.3,29.98,NW,306,0.0,3.0,56,0.00,BKN,,0.01,0.0,WeatherDisplay:10.37,2013-08-23 03:06:00,
2013-08-22 23:11:00,70.8,54.3,29.98,WNW,294,0.0,1.0,56,0.00,BKN,,0.01,0.0,WeatherDisplay:10.37,2013-08-23 03:11:00,
2013-08-22 23:21:00,70.4,54.4,29.99,WNW,294,0.0,1.0,57,0.00,BKN,,0.01,0.0,WeatherDisplay:10.37,2013-08-23 03:21:00,
2013-08-22 23:26:00,70.1,54.2,29.99,WNW,294,0.0,0.0,57,0.00,BKN,,0.01,0.0,WeatherDisplay:10.37,2013-08-23 03:26:00,
2013-08-22 23:31:00,69.9,54.0,29.99,WNW,294,0.0,0.0,57,0.00,BKN,,0.01,0.0,WeatherDisplay:10.37,2013-08-23 03:31:00,
2013-08-22 23:36:00,69.8,54.4,29.99,WNW,294,0.0,0.0,58,0.00,BKN,,0.01,0.0,WeatherDisplay:10.37,2013-08-23 03:36:00,
2013-08-22 23:41:00,69.6,53.7,29.99,WNW,294,0.0,1.0,57,0.00,BKN,,0.01,0.0,WeatherDisplay:10.37,2013-08-23 03:41:00,
2013-08-22 23:46:00,69.4,53.5,29.99,WNW,294,0.0,0.0,57,0.00,BKN,,0.01,0.0,WeatherDisplay:10.37,2013-08-23 03:46:00,
2013-08-22 23:51:00,69.2,53.3,29.99,WNW,294,0.0,0.0,57,0.00,BKN,,0.01,0.0,WeatherDisplay:10.37,2013-08-23 03:51:00,
2013-08-22 23:56:00,69.1,53.2,29.99,WNW,294,0.0,0.0,57,0.00,BKN,,0.01,0.0,WeatherDisplay:10.37,2013-08-23 03:56:00,